Preview of NWS' New Version of Forecast
This preview is not operational and should not be used for support decisions.

Regional Weather Roundup (RWR)

Issued by National Weather Service (NWS)

                            
000
ASCA42 TJSJ 261910
RWRPR 
PUERTO RICO/U.S. VIRGIN ISLANDS HOURLY WEATHER ROUNDUP
NATIONAL WEATHER SERVICE SAN JUAN PR
300 PM AST TUE MAR 26 2019

PRZ001>002-007>008-010-262000-
PUERTO RICO
  
CITY           SKY/WX    TMP DP  RH WIND       PRES   REMARKS
SAN JUAN LMM   MOSUNNY   91  66  43 SE8G17    29.91F HX  94           
AGUADILLA      SUNNY     82  70  65 NE12      29.93F                  
CEIBA          SUNNY     86  72  62 S15       29.95F HX  92           
$$

VIZ001>002-262000-
U.S. VIRGIN ISLANDS
  
CITY           SKY/WX    TMP DP  RH WIND       PRES   REMARKS
CHARLOTTE AMA  MOSUNNY   82  72  69 SE15      29.94F                  
CHRISTIANSTED  MOSUNNY   84  68  58 SE14G21   29.95F                  
$$

HOURLY WEATHER ROUNDUP FOR THE NEWS MEDIA
  
CITY           SKY/WX    TMP DP  RH WIND       PRES   REMARKS
ORLANDO        FAIR      80  58  46 W10       29.96F                  
NEW YORK       FAIR      46   3  17 N12G24    30.27F                  
NEWARK         FAIR      48   4  16 N14G22    30.26F                  
CHICAGO        FAIR      46   9  22 VRB5      30.44F                  
HARTFORD       FAIR      44   3  18 NW10G20   30.20F                  
BOSTON         FAIR      40  14  34 E14       30.24F WCI  32          
DALLAS         MOSUNNY   68  44  42 E7        30.34F                  
PHILADELPHIA   FAIR      48   7  18 N13       30.28F                  
LOS ANGELES    PTSUNNY   65  50  58 VRB6      30.04F                  
WASHINGTON DC  FAIR      48  13  24 N13G22    30.29F